Theta_e
354 353 352 352 351 351 350 351 351 351 351 351 348 343 337 331 325 325 326 325 326 326 326 326 326 326 326 327 330 331 332 333 335 339 342 345 343 341 342 344 345 345 345 346 345 344 346 347 345 346 350 349 346 350 352 350 346 345 348 350 350 346 343 345 344 347 347 345 344 342 341 342 340 342 344 343 343 343 342 342 342 342 341 340 338
355 354 353 353 352 352 352 352 352 351 352 351 348 345 339 334 329 325 325 325 326 325 326 326 325 326 325 326 332 336 332 331 335 338 341 344 341 337 340 341 343 344 343 343 343 342 341 341 342 342 346 348 346 348 349 346 345 346 350 353 352 346 345 346 344 346 347 344 342 342 341 342 341 341 343 342 342 342 342 342 341 341 342 342 341
356 355 354 354 353 353 353 352 353 352 352 352 349 345 340 337 334 329 325 325 325 326 326 326 326 325 326 326 331 339 338 334 338 340 339 343 342 338 338 339 341 342 341 342 341 341 340 340 341 340 342 344 344 347 348 347 347 347 349 353 352 349 348 348 346 346 346 343 342 343 342 341 341 341 341 341 341 341 341 341 341 341 342 343 343
356 356 355 354 354 354 353 354 353 353 353 352 348 344 339 338 337 333 329 325 325 326 325 326 326 325 326 326 327 337 341 335 333 335 334 338 342 342 339 338 342 341 340 342 341 341 340 340 341 341 341 341 341 344 346 349 350 350 351 351 351 351 350 349 349 348 346 344 343 343 341 340 341 341 340 341 340 340 341 340 341 342 342 343 344
357 356 356 355 355 354 354 354 354 353 354 352 348 344 341 339 339 337 333 328 325 325 326 325 325 325 325 326 325 330 334 329 326 328 329 332 339 343 342 339 342 341 340 341 341 342 341 340 341 341 341 342 341 342 345 349 352 353 352 350 350 351 350 351 351 350 347 343 343 343 341 341 341 340 339 340 340 339 340 340 341 341 342 343 344
357 356 356 356 355 355 355 354 354 353 353 352 349 346 342 340 339 340 337 333 328 325 325 325 325 326 325 326 326 325 326 325 325 326 328 330 335 344 346 340 339 340 339 340 340 341 342 341 341 341 341 341 341 341 344 346 348 352 352 351 352 351 349 350 351 351 348 343 342 343 342 342 342 340 339 340 341 339 339 340 341 341 342 342 344
358 357 356 356 355 355 355 354 354 353 354 353 351 349 345 341 340 340 340 337 332 328 325 325 325 325 325 326 326 326 325 325 326 326 328 332 334 343 348 343 337 338 339 339 339 340 342 341 341 342 342 341 340 339 341 346 351 354 352 350 351 350 347 349 352 351 348 345 344 344 343 342 342 341 341 341 341 340 340 340 340 341 341 341 342
358 357 357 356 355 355 354 354 354 353 354 353 352 352 349 344 342 342 341 339 337 333 328 326 325 325 326 325 325 326 325 324 325 325 328 331 331 337 344 342 338 337 337 336 337 339 341 342 341 342 342 341 340 338 339 346 351 351 348 346 347 347 346 349 351 351 350 348 348 345 344 344 343 342 342 342 341 341 341 340 340 340 339 340 342
357 357 357 356 356 356 355 354 354 354 354 355 354 353 350 346 343 343 342 341 339 337 333 329 327 325 325 326 325 325 325 325 326 325 326 329 330 331 334 336 336 335 334 334 336 338 339 342 342 341 341 341 340 339 338 341 345 344 345 345 346 347 349 349 348 350 351 351 350 347 346 345 343 343 342 342 343 342 342 341 340 340 340 340 341
358 357 357 357 356 356 355 355 354 354 355 355 355 354 351 346 343 344 343 341 342 340 338 334 330 329 326 325 325 324 325 325 326 326 326 328 330 331 330 330 333 335 336 335 335 336 339 341 343 341 340 341 340 340 339 338 339 341 344 346 347 348 349 349 349 350 351 352 352 349 346 347 345 344 343 342 343 343 343 342 341 340 340 341 342
357 357 357 357 357 357 356 356 355 355 355 356 356 356 352 347 344 345 344 344 344 343 341 338 334 332 329 328 326 326 326 325 325 326 325 327 329 331 332 330 332 335 338 339 336 336 337 340 343 341 340 340 340 340 338 339 342 342 342 343 346 346 347 350 351 351 350 350 350 349 348 348 347 345 345 344 344 344 344 342 341 342 341 341 343
357 357 357 357 357 357 357 356 356 356 356 356 357 356 354 349 345 346 347 347 347 346 345 342 339 335 331 330 329 328 328 326 326 325 325 326 327 329 331 332 332 334 337 340 339 338 337 338 341 341 339 337 339 340 339 340 345 347 344 342 344 347 347 348 350 352 352 351 351 352 351 349 348 347 346 345 344 345 345 344 343 343 342 342 343
356 357 357 357 357 357 357 356 357 357 356 356 356 356 354 349 345 346 347 347 348 347 346 345 343 340 335 332 331 330 330 328 327 326 326 327 326 328 329 331 333 333 333 337 338 339 338 337 339 339 338 338 339 339 339 339 341 344 343 340 341 345 346 347 348 351 353 352 353 354 352 349 347 347 346 345 344 346 346 346 344 343 343 343 343
355 356 356 356 357 357 357 357 357 357 356 356 356 356 354 349 345 346 346 346 347 346 346 344 343 341 337 334 332 332 332 331 329 328 327 328 327 327 327 329 332 332 332 333 334 338 338 336 340 340 339 340 341 341 341 341 341 341 341 340 341 342 344 346 347 349 350 351 352 353 352 350 348 347 347 346 346 347 346 346 346 346 345 343 344
354 355 355 356 357 357 357 357 357 357 356 356 356 355 354 349 345 345 346 346 347 346 346 343 342 340 338 335 333 332 332 331 331 330 330 329 329 330 328 328 330 331 332 332 333 335 335 336 341 342 341 341 342 342 342 342 341 341 342 342 340 339 341 344 345 347 349 350 350 350 349 351 350 349 349 348 348 347 347 347 348 348 346 345 345
354 355 355 356 357 356 357 357 357 357 357 356 355 355 353 349 345 345 346 346 346 347 346 345 344 343 339 336 336 334 334 334 333 332 331 331 330 332 330 328 329 331 331 332 332 333 334 335 339 341 340 341 342 343 343 342 340 340 342 343 340 337 338 341 343 346 349 350 350 349 348 350 351 351 351 351 350 348 347 346 346 347 348 347 347
353 354 354 355 357 357 357 357 357 357 356 356 355 353 351 348 345 345 346 347 346 347 347 347 347 346 343 340 339 337 337 337 336 334 332 332 332 333 332 331 331 332 332 332 333 333 334 335 337 338 338 340 342 342 342 342 340 340 341 342 340 336 336 340 343 344 348 351 352 351 349 348 349 348 347 349 349 345 341 340 341 343 344 345 347
353 354 354 355 356 356 356 357 356 357 356 355 354 353 351 348 345 345 346 346 347 347 347 347 347 347 346 344 342 340 338 338 337 336 334 333 333 333 334 334 334 334 334 335 334 333 334 335 336 337 336 338 340 341 342 341 341 341 340 340 340 337 335 339 341 341 344 347 350 351 351 349 348 347 345 349 349 342 338 338 340 340 339 340 343
352 353 354 355 355 356 356 357 356 356 356 356 355 353 352 348 345 344 346 346 347 347 348 348 348 348 348 346 344 342 340 339 338 337 336 335 335 335 335 335 336 337 336 336 335 333 333 334 336 337 336 337 338 339 340 341 341 342 340 339 341 339 336 337 338 338 340 343 344 345 346 345 347 347 347 349 348 343 340 339 339 336 334 334 336
352 354 354 355 355 355 355 356 356 355 357 357 356 355 353 350 346 345 345 345 346 348 347 348 348 348 348 348 347 345 343 341 340 340 339 338 337 337 337 337 338 338 338 337 335 334 333 334 334 336 336 336 336 337 338 339 341 341 340 341 343 341 338 337 335 336 339 340 340 342 343 342 342 343 343 345 346 343 341 340 338 336 335 333 331
350 352 354 355 355 354 354 355 355 356 356 357 357 356 355 354 351 347 346 345 345 346 346 347 348 348 348 349 348 347 346 345 344 343 342 341 340 340 340 340 339 339 338 337 335 334 333 333 334 335 337 336 336 336 335 338 340 339 338 340 340 338 339 339 336 336 338 337 337 338 339 341 342 342 341 343 346 345 342 340 339 337 337 337 335
351 352 354 354 354 355 354 355 355 355 356 357 356 357 356 356 355 351 350 349 347 346 345 346 346 347 348 348 348 348 347 347 346 346 345 344 343 342 341 341 340 339 338 337 336 334 333 333 333 334 336 336 336 336 335 337 339 338 336 336 336 335 337 339 337 335 336 335 335 336 336 338 340 341 341 340 344 347 348 347 344 340 338 339 338
351 352 352 354 354 355 354 355 355 355 355 356 356 357 356 357 356 354 353 351 349 349 347 345 345 346 346 347 348 348 347 347 347 347 346 345 345 343 342 341 340 338 337 336 336 336 334 333 333 334 335 335 335 335 334 336 336 335 334 334 335 334 336 341 339 335 337 338 338 337 335 335 337 339 340 338 338 342 343 345 344 341 339 338 338
351 351 352 353 354 355 355 354 355 354 355 355 356 356 357 357 357 355 354 352 352 353 351 346 343 344 345 346 347 347 347 348 348 347 347 347 347 346 342 340 338 338 338 336 335 335 335 333 333 334 334 335 335 334 334 334 333 333 333 333 335 334 335 340 339 336 337 340 341 341 338 336 337 337 337 335 334 335 335 336 336 336 336 336 337
352 351 351 352 354 356 355 355 356 354 354 355 355 356 357 356 356 355 355 354 354 355 354 350 344 343 345 346 346 347 347 348 347 349 349 349 350 350 346 340 337 339 339 337 336 336 336 334 333 334 334 334 334 333 333 332 332 332 334 333 334 333 334 337 338 336 336 338 340 341 338 336 336 336 335 334 333 333 333 334 334 335 335 334 335
353 352 352 352 354 356 356 356 356 355 354 355 355 356 356 356 356 355 355 356 356 356 356 353 348 344 344 344 345 346 347 347 347 349 351 351 351 353 351 343 337 338 338 337 336 335 335 335 334 333 333 333 333 333 332 332 331 332 333 334 334 334 334 335 337 337 336 337 336 336 335 334 334 334 333 333 332 332 332 333 332 333 333 333 334
352 353 353 352 354 357 357 356 355 355 354 354 355 355 355 355 355 355 356 357 356 357 357 355 352 347 344 344 345 345 347 348 347 348 351 352 352 353 353 349 341 336 338 339 337 336 334 335 335 333 333 333 333 333 332 331 331 331 332 333 333 333 334 334 334 334 334 335 335 333 332 332 332 332 332 332 332 332 332 332 332 332 332 333 334
347 350 352 354 355 357 358 357 356 355 354 355 355 355 354 355 355 355 356 356 357 356 357 356 353 350 347 344 344 346 345 346 346 346 349 352 353 353 354 353 346 338 340 341 339 337 334 333 334 334 333 333 333 333 332 332 331 330 330 332 333 333 332 332 332 332 332 334 334 332 332 332 331 330 331 331 332 332 332 331 331 332 333 334 335
342 348 352 353 354 358 358 356 355 355 355 355 355 355 355 355 355 356 355 355 357 357 356 356 354 349 346 344 345 347 345 345 346 346 347 349 351 352 352 352 347 342 342 343 342 342 339 334 333 333 333 333 332 333 332 332 331 330 329 330 331 332 332 332 332 331 332 333 332 333 333 332 331 330 329 330 331 331 332 332 332 332 334 337 338
335 343 350 351 353 356 357 354 353 354 355 355 355 355 354 354 355 355 356 356 357 357 357 356 353 348 346 345 346 346 345 345 346 345 346 347 348 349 350 349 346 344 344 344 344 346 346 341 335 332 333 333 331 332 332 331 330 329 329 328 330 331 331 331 331 331 331 331 331 331 331 331 331 330 330 330 330 331 331 332 332 333 335 337 338
339 339 344 349 351 354 356 354 351 351 352 354 355 354 354 354 355 355 355 355 356 357 356 353 351 350 349 347 345 345 345 344 345 345 346 347 347 348 348 348 347 346 345 345 345 345 347 348 343 335 332 332 332 331 331 330 330 329 328 328 329 329 330 331 331 330 330 329 329 329 329 329 329 330 330 329 330 331 331 331 332 332 333 336 337
352 348 345 346 349 352 354 352 348 349 351 353 355 355 354 354 355 355 356 355 356 356 355 353 352 352 349 347 345 345 345 345 344 344 345 345 347 347 348 347 347 347 346 346 346 345 346 349 348 343 338 335 332 332 331 330 330 329 329 328 327 328 329 329 329 329 328 328 328 328 328 329 328 329 329 329 329 330 331 331 331 332 332 334 336
358 358 354 349 346 348 351 349 347 349 351 352 354 354 354 354 355 355 355 354 355 357 356 354 353 352 349 346 346 345 346 345 345 344 345 345 346 346 347 347 347 348 347 347 347 347 346 347 348 348 343 339 336 333 331 330 330 329 329 328 327 327 328 328 328 327 328 327 327 328 328 328 328 329 329 329 330 330 330 331 331 331 333 334 335
358 359 359 357 351 346 348 350 348 346 348 351 353 353 354 354 355 355 355 355 355 357 357 355 353 351 348 346 346 346 346 346 344 345 344 345 346 346 347 347 347 348 347 347 347 347 347 347 347 347 345 341 340 336 331 330 331 330 329 328 328 328 328 328 328 327 327 327 327 328 328 327 328 329 329 330 330 330 330 331 331 332 334 335 337
358 359 360 361 356 348 345 351 351 348 349 352 355 354 354 355 355 355 355 356 356 357 358 356 353 350 347 346 346 347 346 346 346 345 345 345 346 346 347 347 348 347 347 348 347 347 348 348 347 348 346 343 341 338 332 330 330 330 330 329 329 329 329 329 329 328 327 327 327 327 328 328 328 328 329 330 330 330 331 331 333 335 336 339 343
358 358 359 361 359 349 342 347 352 350 350 353 354 355 355 355 355 355 355 356 356 357 358 357 352 349 348 347 347 347 347 347 346 346 346 345 346 346 347 347 348 348 348 348 347 348 348 348 347 348 347 346 344 340 335 330 330 330 331 331 330 331 331 330 329 329 328 328 328 328 328 327 328 329 330 330 330 331 333 333 334 337 338 343 349
357 358 360 359 356 348 342 346 352 351 350 352 353 354 355 354 354 355 355 356 356 356 356 354 351 349 347 347 347 347 347 347 347 347 346 347 346 346 346 347 347 348 348 348 348 348 348 348 349 348 348 348 346 344 339 334 333 331 332 332 331 332 331 331 330 329 329 329 328 328 328 328 329 329 329 330 331 332 334 335 337 339 341 346 352
357 359 359 354 350 346 343 347 351 351 350 351 353 354 354 354 354 355 355 356 356 355 353 351 349 347 347 347 347 347 347 347 347 348 347 347 347 347 347 347 347 347 348 348 348 348 348 348 349 349 349 348 348 347 344 340 338 337 336 335 335 335 333 332 331 330 330 330 329 329 329 329 329 330 330 331 332 333 336 338 340 341 342 348 354
356 359 357 351 347 347 345 347 352 352 349 351 353 354 354 354 355 356 356 357 357 354 350 347 347 347 347 347 347 346 348 347 348 348 348 347 348 347 347 348 347 347 348 348 348 348 348 349 349 349 350 349 349 349 348 344 343 342 341 341 340 340 338 335 333 332 332 331 330 330 330 330 331 331 331 332 334 335 339 341 342 345 349 353 356
357 359 357 351 349 349 348 349 353 351 350 353 354 353 354 354 356 356 356 356 355 351 348 346 347 347 347 346 347 347 347 348 348 349 348 348 348 347 347 347 347 348 348 347 348 348 348 348 349 349 351 350 350 351 350 348 347 346 345 345 346 345 343 338 336 335 334 334 332 330 331 330 330 331 332 334 336 338 341 344 346 349 353 355 357
356 358 356 352 351 352 350 350 352 350 352 354 354 354 354 355 356 356 356 356 354 350 347 347 346 347 347 346 347 347 348 348 349 349 349 349 348 348 348 347 348 348 348 348 349 349 350 350 350 350 351 351 351 352 352 351 350 348 348 349 350 349 346 343 343 341 339 338 336 334 334 332 331 332 335 337 339 341 344 347 348 350 352 354 355
356 357 356 354 353 353 350 350 353 353 354 354 354 353 355 355 355 354 354 356 355 351 347 347 347 347 347 347 348 347 348 348 348 349 349 348 348 349 349 348 349 348 350 350 350 350 351 352 354 353 353 352 352 353 355 355 354 354 352 353 353 352 350 349 349 346 344 343 341 340 339 337 335 335 338 341 343 345 347 349 350 351 352 353 355
355 356 357 357 355 352 351 352 354 353 353 354 354 354 353 352 351 351 353 356 355 350 346 347 347 347 347 347 348 347 348 348 349 349 349 349 349 350 350 350 350 351 352 352 353 353 354 355 356 357 357 356 355 355 356 357 357 358 357 356 356 354 353 353 352 351 350 349 349 349 347 344 341 341 344 346 347 348 349 350 352 353 354 355 357
354 354 357 358 358 354 351 353 355 354 354 355 355 353 350 348 347 350 353 354 353 350 348 347 347 348 348 348 348 348 349 349 349 349 349 350 350 350 351 352 352 352 353 354 355 356 358 358 359 360 360 361 361 360 359 359 359 360 359 359 358 357 357 355 355 355 355 355 356 356 355 352 348 347 349 350 350 351 352 352 353 355 355 356 358
353 354 355 358 359 358 356 355 355 355 355 357 357 352 348 348 349 349 352 354 353 351 349 348 348 348 349 349 349 349 349 349 350 350 350 350 351 351 351 352 352 353 354 355 356 358 359 360 361 362 362 363 363 362 362 361 360 361 361 361 360 360 359 358 357 357 357 357 357 357 358 356 352 351 352 353 352 353 353 354 355 356 357 359 359
353 353 354 355 357 359 361 361 359 357 357 358 360 355 349 349 350 349 350 353 352 349 348 348 348 349 349 349 350 350 350 350 351 352 352 350 351 352 352 352 353 354 354 355 357 359 359 358 360 363 363 363 364 364 363 363 362 361 362 361 361 361 361 360 359 358 358 357 357 356 356 355 353 353 353 354 354 354 355 356 357 358 359 359 360
351 352 353 354 355 356 359 361 361 362 362 362 362 359 353 349 349 349 350 351 349 349 349 349 349 349 349 349 350 350 352 353 353 355 357 355 352 353 354 353 352 354 355 355 357 359 361 360 362 363 364 364 364 364 364 363 363 362 363 363 362 362 362 361 360 359 359 358 357 356 355 355 354 355 354 354 355 356 356 358 358 359 359 360 360
348 350 351 352 353 354 356 357 358 360 362 362 363 363 359 352 348 350 351 350 348 349 350 350 350 350 350 350 351 350 354 357 356 355 358 359 357 355 357 356 354 355 357 356 357 359 362 363 364 364 364 365 365 364 365 365 364 363 363 362 363 363 362 362 361 360 359 358 357 356 355 355 355 355 354 355 356 357 358 358 359 359 360 360 360
346 348 349 350 351 352 353 354 355 356 356 357 359 359 357 353 351 351 351 350 348 349 351 350 350 351 351 352 352 350 352 358 360 357 357 359 360 361 362 361 360 358 358 359 360 362 362 363 364 365 365 366 366 366 366 366 365 363 363 363 363 363 363 362 361 360 359 358 357 356 356 355 355 355 354 355 356 357 358 359 359 360 359 359 359
344 345 346 348 349 349 351 353 353 354 355 355 355 355 353 351 351 350 350 350 350 351 351 351 351 352 351 351 352 352 352 356 362 363 360 356 358 361 362 363 364 363 361 360 362 363 364 364 365 366 366 366 366 366 366 365 363 362 362 363 362 362 362 361 361 360 359 357 356 356 355 355 355 355 355 356 357 358 359 359 359 359 358 356 353
343 343 344 346 346 347 349 350 352 353 355 355 355 355 355 353 353 352 351 351 350 349 351 352 352 352 352 352 352 355 356 355 359 366 366 360 356 359 359 359 362 363 362 362 362 362 363 364 364 364 365 365 365 365 364 363 363 362 362 361 361 361 361 361 360 360 359 358 356 355 355 356 356 357 357 357 357 358 360 361 360 357 353 349 343
Wind_Speed
25 28 30 31 30 30 29 28 29 30 29 30 32 33 33 33 34 35 34 33 33 31 29 28 26 25 23 22 19 18 18 18 17 15 12 12 13 13 12 11 10 9 9 8 7 7 6 5 4 4 3 2 2 2 2 1 2 2 2 3 2 2 3 2 2 3 3 3 3 3 3 3 2 3 3 3 3 3 3 3 3 3 3 4 6
24 27 30 31 31 31 30 29 30 31 30 31 32 32 34 35 34 35 35 35 34 33 31 30 28 26 25 22 19 16 17 18 16 15 13 12 14 14 12 11 11 10 9 9 8 7 6 5 4 4 3 3 2 2 1 1 2 2 1 1 1 3 3 2 1 2 3 2 3 4 3 3 2 2 2 3 3 3 2 2 2 2 2 2 3
26 28 30 32 32 32 31 30 30 31 31 32 33 33 35 36 35 36 36 36 36 35 33 31 29 27 25 23 20 14 14 16 15 14 14 13 13 13 12 12 11 11 10 9 8 8 7 6 5 4 4 3 2 1 1 1 2 2 1 1 1 3 3 2 1 2 3 2 3 4 3 3 3 3 3 4 4 3 2 1 1 1 1 0 1
27 28 30 32 32 32 32 31 31 31 32 33 36 38 38 38 37 37 37 37 37 36 35 32 30 29 26 25 23 17 14 17 17 17 16 14 13 13 13 12 11 11 11 10 9 8 7 7 6 5 5 4 3 2 2 1 2 2 1 2 1 2 3 3 1 1 3 3 2 2 2 2 3 4 4 4 4 3 2 2 1 1 1 1 1
29 29 31 32 33 33 33 31 31 32 33 34 37 39 39 39 39 38 38 38 38 37 36 34 32 31 28 27 26 22 20 20 19 18 18 16 15 14 13 12 11 11 11 11 9 8 8 8 7 7 6 6 5 4 3 2 3 2 2 3 1 1 2 3 2 1 2 3 2 2 3 2 1 3 4 3 3 3 3 2 2 2 2 3 2
29 30 32 32 33 33 33 32 32 32 33 34 36 37 39 40 40 39 39 39 39 38 36 36 35 33 32 30 28 27 25 23 20 19 19 18 17 15 14 13 12 12 12 11 10 9 9 8 8 8 7 6 6 5 5 4 3 2 2 2 1 3 2 1 1 1 1 2 2 3 3 1 1 1 2 2 3 3 3 3 3 3 3 4 4
28 29 31 32 32 33 34 34 33 32 32 33 34 35 38 40 40 40 40 39 40 39 38 38 37 36 34 32 30 28 27 24 21 20 19 19 17 15 14 14 13 13 13 12 11 10 9 9 9 8 7 7 7 7 6 4 3 3 3 3 2 4 2 1 1 1 2 2 2 3 2 2 1 1 1 1 2 3 3 3 4 3 3 4 4
29 29 31 32 34 35 35 35 34 32 30 31 33 34 37 40 41 40 39 40 40 40 40 40 39 37 36 33 32 30 28 26 23 22 21 20 20 18 16 16 14 14 14 13 12 11 10 10 10 9 8 8 7 8 7 6 6 6 4 3 3 4 3 2 2 2 3 2 3 4 3 3 3 2 2 2 2 2 2 3 3 2 3 3 4
29 30 32 33 34 35 35 35 33 31 30 31 33 33 36 40 40 40 39 39 40 40 41 41 40 39 37 35 34 33 30 28 26 24 24 23 22 20 19 18 16 15 15 14 14 13 11 10 10 10 9 8 8 8 7 8 8 7 5 4 4 3 4 3 3 3 3 3 4 4 4 4 3 3 4 3 3 3 2 2 2 2 3 3 3
29 30 32 33 34 34 33 32 32 32 31 31 31 32 35 39 40 40 39 39 39 40 41 41 41 40 39 38 36 35 33 31 28 27 26 24 23 21 20 20 18 17 16 16 15 14 13 11 11 11 10 9 9 8 8 9 9 8 6 6 5 4 5 4 4 4 4 4 5 4 4 4 5 4 5 4 4 4 3 3 3 3 2 2 2
28 29 30 32 32 31 31 31 33 32 31 30 31 31 35 39 40 39 39 38 39 39 40 40 41 41 41 40 38 36 35 33 31 30 29 26 24 22 20 20 19 19 17 17 16 15 14 13 12 12 11 10 10 8 9 9 8 8 8 7 6 5 5 5 5 5 5 5 5 5 5 5 5 5 5 5 5 4 4 5 4 3 3 3 3
28 29 29 30 30 31 32 32 33 33 32 32 32 32 34 39 41 40 39 38 39 39 39 39 40 41 41 41 40 38 36 35 34 32 31 28 25 23 22 20 20 20 19 18 17 16 16 15 13 13 12 12 11 9 9 9 8 9 9 8 7 6 5 5 5 5 5 5 5 6 6 5 6 5 5 5 5 5 5 5 5 5 5 4 4
28 29 29 31 32 33 34 34 34 35 35 34 33 33 35 39 41 40 39 39 39 39 39 39 39 41 42 42 41 39 38 37 35 33 32 30 28 26 24 23 22 21 21 20 18 17 16 16 14 14 13 12 11 10 10 9 9 10 10 9 8 7 6 6 5 5 6 6 5 6 6 5 6 6 6 6 5 6 5 6 6 6 6 6 5
28 29 30 32 34 35 35 36 35 36 36 36 35 34 36 40 41 40 40 39 39 39 38 38 39 40 41 41 41 40 39 38 36 35 34 32 30 29 27 25 24 23 22 21 19 18 18 16 14 14 14 12 12 12 11 10 10 10 10 10 9 8 7 6 6 6 6 6 6 6 6 5 6 6 6 6 6 6 6 6 6 6 7 6 6
27 28 30 32 35 35 36 36 36 37 37 37 36 36 38 41 43 41 40 40 40 39 38 37 37 38 39 40 40 40 39 38 37 36 35 34 32 30 29 27 26 25 23 22 20 19 19 17 15 14 14 13 13 13 12 11 11 11 10 10 10 10 8 7 6 6 6 6 6 6 6 6 6 6 6 7 6 6 6 6 7 7 7 7 5
27 28 30 32 33 34 35 36 37 37 38 38 38 40 41 43 44 43 42 41 41 40 39 37 36 36 37 39 39 39 39 38 37 37 36 35 33 31 29 28 27 27 26 24 22 20 20 19 16 15 15 15 14 14 13 13 12 12 11 10 11 11 10 8 7 7 7 7 7 7 7 7 7 7 7 7 7 7 7 8 7 7 7 7 7
27 29 31 33 34 35 36 36 37 37 39 40 41 42 44 45 45 44 42 41 41 40 39 38 37 36 36 37 37 38 38 38 37 37 36 35 33 31 29 28 28 27 27 25 24 22 21 20 18 17 17 16 15 15 14 14 13 13 12 12 12 12 12 10 9 8 8 7 7 8 7 7 8 8 7 8 8 9 9 9 9 8 8 8 8
28 30 31 33 35 37 37 37 38 39 40 42 43 43 44 45 46 44 43 42 42 40 39 38 37 36 36 36 36 36 36 36 36 36 36 35 35 32 30 29 28 28 27 26 25 24 22 21 19 19 18 17 16 15 15 14 14 14 13 13 13 13 13 11 10 10 9 9 9 9 8 8 8 8 8 8 8 8 8 9 9 9 10 9 9
28 30 31 32 34 36 37 37 38 39 39 40 41 42 42 44 46 45 44 43 42 40 39 38 37 36 36 35 35 35 35 35 35 35 35 35 35 33 31 30 29 28 28 27 26 25 24 22 21 20 19 19 18 17 17 16 15 15 15 14 13 14 14 14 12 11 10 10 10 10 10 10 9 8 9 9 9 8 8 9 10 10 11 11 10
27 29 30 32 34 36 38 39 39 39 39 39 39 41 41 43 44 45 44 43 42 41 40 39 38 37 36 35 34 34 35 35 34 34 34 34 34 32 31 30 29 29 28 28 27 26 25 24 22 21 20 20 20 19 19 18 17 17 17 16 15 14 15 15 14 12 12 12 11 11 11 11 10 10 10 10 10 10 10 10 11 11 11 11 11
27 29 31 33 35 36 37 38 38 38 38 37 38 39 39 39 41 43 44 44 44 43 42 41 40 38 38 36 35 34 34 34 34 34 34 34 33 32 31 30 29 29 29 28 28 27 26 25 23 22 21 21 21 21 21 20 19 19 18 18 18 17 16 16 15 14 14 13 13 12 12 12 11 11 11 11 11 11 11 11 11 12 11 11 12
27 29 30 32 34 36 36 36 36 35 36 37 37 38 38 38 39 41 42 43 44 44 44 43 41 41 40 38 36 35 34 34 33 34 34 34 34 32 31 30 30 29 29 28 28 27 27 26 25 24 23 22 22 21 21 21 20 21 20 20 19 19 18 17 16 15 15 15 14 13 13 13 12 12 12 12 12 12 11 11 12 12 12 12 13
27 29 30 31 33 34 34 35 35 36 37 38 38 38 39 40 39 39 40 42 42 42 44 44 43 42 41 39 37 36 35 34 33 33 33 33 32 31 30 30 30 29 28 28 28 28 28 27 26 26 25 24 23 22 21 21 21 22 21 21 20 20 19 17 17 16 15 15 15 14 14 14 14 14 13 13 14 14 14 13 13 14 14 14 15
26 27 28 29 29 30 31 33 35 37 38 38 39 39 39 39 39 39 40 41 41 40 41 43 44 43 41 40 39 37 36 35 34 34 33 32 31 30 30 30 29 28 28 28 28 28 28 28 28 28 27 26 25 24 22 22 22 22 22 22 22 22 20 18 18 18 16 16 15 15 15 15 16 17 16 15 16 16 16 16 16 16 16 16 16
24 24 26 27 27 29 32 34 37 38 37 37 39 39 38 39 40 40 39 40 40 39 39 42 44 43 42 42 40 39 37 36 35 35 34 32 30 29 29 29 29 28 28 28 28 28 28 29 29 29 28 28 27 25 24 23 22 22 22 22 22 23 22 21 20 19 18 18 17 17 16 16 18 18 18 17 17 17 17 17 17 17 17 17 17
18 20 22 24 26 29 33 36 38 39 37 38 39 38 38 38 40 39 38 38 39 38 38 40 42 43 43 42 41 40 39 37 36 35 33 32 30 29 29 29 29 29 29 29 29 28 29 29 30 30 29 29 28 27 26 25 24 23 23 23 23 23 23 22 21 20 20 20 20 20 19 18 19 19 19 18 18 18 18 17 18 17 18 18 19
14 15 19 21 24 27 31 35 38 38 37 38 39 39 38 38 39 38 37 37 38 38 38 39 41 41 42 43 42 41 40 38 37 36 34 32 31 30 29 29 30 30 30 30 29 29 29 30 30 29 29 30 29 28 27 26 25 25 25 25 24 24 24 24 23 22 22 22 21 21 20 20 20 20 19 19 19 19 19 19 19 20 20 20 21
13 15 19 22 25 26 29 34 35 35 35 36 37 38 38 38 39 38 37 37 38 39 39 40 41 41 42 42 42 41 41 40 38 37 35 33 32 30 30 30 30 30 30 29 29 30 30 31 30 30 30 30 30 29 29 28 27 27 27 27 26 26 25 25 25 24 24 23 23 22 21 21 21 20 20 20 20 21 21 21 21 22 22 22 22
12 16 21 24 26 28 31 34 35 34 34 34 34 35 36 37 37 37 37 37 37 39 39 40 41 43 42 42 41 41 41 40 39 38 37 36 34 33 32 32 32 31 29 29 29 29 30 31 31 30 30 30 30 30 30 29 28 28 28 29 28 28 27 27 26 26 25 25 24 24 23 23 23 22 21 21 21 22 22 22 22 23 23 22 22
10 15 20 24 27 29 32 36 37 35 35 35 34 34 36 36 36 38 38 37 37 38 40 41 43 44 44 42 42 42 42 41 41 39 38 37 36 35 34 34 34 32 30 30 30 29 29 29 31 31 31 31 31 31 31 31 29 29 29 29 30 29 29 29 28 27 27 26 25 25 25 25 25 24 23 22 22 23 23 23 23 23 23 23 23
8 10 16 22 25 29 32 35 38 39 38 37 36 36 36 36 36 38 39 38 38 40 42 44 44 44 44 43 42 42 42 42 41 40 39 37 37 36 36 35 35 33 32 32 31 31 30 29 30 31 32 32 32 32 32 31 30 29 29 30 30 30 30 31 30 29 29 28 27 27 26 26 26 25 24 24 24 24 24 24 24 24 24 24 24
10 9 12 17 22 26 30 34 38 40 40 39 38 37 36 36 37 38 39 38 39 40 43 45 44 43 44 44 43 42 42 42 42 40 39 37 36 36 36 36 35 34 34 34 33 33 33 31 30 31 32 32 33 33 33 32 30 29 30 30 31 31 32 32 32 31 30 29 29 28 28 28 27 26 26 26 26 25 26 26 26 26 26 26 26
14 13 13 16 19 23 29 34 36 38 40 41 41 40 39 39 39 38 38 38 38 39 41 44 43 43 45 44 43 42 42 42 42 40 39 37 36 37 37 37 36 35 35 35 35 34 34 34 33 32 33 33 33 33 33 31 30 29 30 31 31 32 33 33 33 32 31 31 30 30 29 29 28 28 28 27 27 27 27 28 27 27 27 27 28
19 17 17 17 19 22 27 32 35 37 39 40 40 41 40 38 37 36 36 37 37 37 39 42 44 44 45 43 42 42 42 42 42 40 39 38 37 37 37 37 36 36 36 36 36 35 35 35 35 35 35 34 33 34 33 31 29 29 30 31 32 33 33 34 34 34 33 32 31 31 31 30 29 30 30 29 29 28 28 28 28 28 28 28 28
22 21 20 19 19 22 26 30 34 36 36 37 37 37 35 34 34 35 36 37 37 36 36 40 43 44 43 42 41 42 42 42 42 40 39 38 38 38 37 37 36 37 37 36 36 35 36 36 35 35 36 36 35 35 34 32 29 29 30 31 32 33 34 35 35 35 34 33 33 32 32 31 31 31 31 30 30 29 28 28 27 28 28 26 24
24 24 25 24 23 23 26 30 32 33 33 36 37 36 34 34 34 35 35 36 37 36 35 38 42 43 42 41 41 42 42 42 41 41 40 39 39 38 38 37 37 37 37 36 36 35 35 35 35 35 35 36 36 36 36 33 31 30 30 31 32 34 35 36 36 36 35 35 34 34 33 33 33 32 31 31 30 28 27 27 27 27 27 25 21
25 26 27 26 24 23 24 27 29 31 33 35 36 35 34 34 33 34 35 35 36 37 38 41 42 42 40 40 40 41 41 41 41 41 41 40 40 39 38 38 38 37 37 37 36 35 34 34 34 35 35 35 35 36 36 35 33 32 32 33 34 35 36 37 37 37 36 36 36 35 34 34 34 33 32 32 30 27 26 26 27 27 26 24 20
25 26 26 24 22 21 22 25 28 31 34 34 34 34 34 34 34 34 35 35 36 39 42 43 42 40 39 39 39 39 39 40 41 41 41 40 40 40 39 38 37 37 36 36 35 34 34 34 34 35 35 34 34 35 36 35 34 33 33 33 34 36 36 37 37 37 37 37 37 36 35 35 35 34 33 32 29 27 25 25 26 26 26 24 18
25 24 23 20 18 18 20 24 27 31 33 33 34 35 34 34 35 34 34 35 37 40 43 42 40 38 37 37 37 37 38 39 40 40 40 40 40 38 37 36 36 35 35 34 34 34 34 34 34 35 34 34 34 34 35 35 34 33 32 33 34 35 36 37 37 38 37 37 37 37 36 36 35 33 33 31 28 26 25 24 24 24 23 20 16
23 21 19 16 15 16 20 24 28 31 32 33 34 35 35 35 35 33 34 36 38 40 40 38 37 37 36 36 35 35 36 37 39 39 39 39 38 36 36 35 35 35 34 34 35 35 35 35 35 34 34 34 33 33 34 35 34 33 33 32 33 35 36 37 37 37 37 37 37 37 37 36 35 33 32 30 27 25 24 23 22 22 21 18 15
20 19 16 12 13 17 20 23 27 31 32 33 34 34 35 36 35 34 35 36 37 38 37 36 37 36 35 34 34 34 35 35 36 37 37 37 36 35 35 35 34 34 34 34 35 34 34 34 34 34 34 34 33 33 33 34 34 34 33 32 34 35 36 36 36 36 36 36 36 37 37 36 35 32 29 27 25 24 24 23 24 25 23 21 18
14 14 11 9 12 16 19 21 26 30 32 33 34 35 36 37 37 38 37 34 34 35 36 35 35 35 33 32 32 32 33 33 34 34 34 34 34 34 34 34 33 33 34 34 35 34 33 32 32 32 33 33 34 33 33 33 34 33 32 32 34 35 35 35 35 36 36 36 36 36 36 36 34 30 25 24 24 24 25 25 25 25 24 22 21
10 8 6 5 9 15 19 21 25 29 31 32 34 37 39 40 40 39 36 33 33 35 35 34 34 33 32 31 31 31 31 32 33 32 32 33 33 33 34 34 32 33 33 32 31 30 30 29 29 28 28 28 30 31 32 33 32 32 31 32 32 33 34 34 34 34 34 32 30 29 29 31 31 26 22 23 24 24 26 26 25 24 22 21 21
7 6 3 0 5 12 17 20 23 26 28 30 33 38 40 40 40 38 34 33 35 35 34 34 33 33 32 32 31 31 30 31 31 31 31 32 32 32 33 32 31 31 31 30 28 25 24 24 24 24 23 22 22 25 28 31 31 30 30 30 30 30 31 31 31 30 27 23 20 20 20 23 25 22 20 22 23 24 25 25 24 23 22 21 21
7 5 3 3 3 6 11 16 20 23 25 26 30 36 38 37 37 36 34 33 35 36 34 33 32 32 32 31 30 29 28 29 30 30 30 31 30 31 32 31 30 29 29 29 27 24 23 23 22 21 22 22 21 22 24 27 29 29 28 28 28 28 28 28 29 28 24 21 21 21 21 21 22 20 20 21 22 24 24 24 23 22 21 21 21
10 9 7 4 4 5 7 11 15 17 19 22 25 30 34 34 34 35 35 34 34 33 31 29 29 29 29 28 27 27 27 27 28 28 28 28 28 29 30 30 29 29 28 28 25 23 24 25 23 21 21 22 22 22 22 23 26 27 27 26 26 26 26 26 26 26 26 25 25 25 24 22 21 20 20 21 22 23 23 22 23 22 22 22 22
14 12 10 7 5 5 6 12 16 14 12 16 19 22 29 32 32 32 33 33 33 30 27 27 27 26 26 26 26 26 26 26 27 27 26 26 27 27 28 28 29 29 29 29 27 24 23 25 23 22 21 21 22 23 23 22 23 24 25 25 24 24 25 26 27 27 27 26 26 25 24 22 21 21 21 22 23 23 23 22 23 22 22 22 20
16 15 13 11 9 6 6 10 13 12 11 14 16 18 23 30 32 30 31 32 31 28 26 26 27 27 27 27 27 27 26 25 26 27 26 25 26 26 27 28 28 28 28 28 28 27 25 24 23 22 22 22 23 24 22 20 20 21 22 23 23 24 25 26 27 26 25 24 24 24 23 22 23 23 22 23 24 24 22 22 22 21 21 20 18
18 17 15 13 12 10 8 7 7 8 12 16 19 20 24 29 30 30 31 31 30 28 27 27 28 28 28 28 27 27 26 25 24 25 26 26 26 26 26 25 25 27 28 27 27 26 25 25 24 23 22 22 22 21 19 17 17 19 20 20 21 22 22 23 23 22 22 23 24 24 23 24 24 24 22 23 24 23 22 22 22 21 19 17 15
20 18 16 14 13 12 9 8 7 6 8 11 15 19 23 26 28 29 30 30 30 30 29 28 28 28 27 27 27 26 26 26 23 22 25 29 29 28 28 27 25 27 28 28 27 26 24 24 23 22 21 21 20 19 19 17 17 16 15 17 18 18 18 18 19 20 21 22 22 21 21 22 22 22 21 22 23 23 23 22 21 20 17 14 12
21 19 18 16 14 14 12 10 8 7 7 7 8 11 15 19 23 25 26 27 28 28 27 27 27 27 26 26 27 26 26 27 25 22 23 29 31 30 30 30 29 29 29 28 28 27 27 26 25 22 21 20 20 19 19 18 17 15 14 15 17 17 17 18 18 19 21 21 19 18 20 21 22 22 21 21 22 23 23 21 17 15 13 12 11
Wind_Direction
191 190 192 190 191 192 191 192 192 194 194 195 201 206 206 204 201 200 199 199 199 198 197 198 198 196 196 195 196 197 199 200 201 201 200 204 207 203 200 200 195 192 188 177 175 172 169 178 177 161 157 159 153 146 167 224 314 326 335 359 2 350 12 64 138 148 155 170 163 154 142 146 171 158 153 163 158 150 132 117 117 102 81 82 84
187 189 191 191 191 191 191 193 193 193 194 198 201 204 208 209 206 203 202 202 202 202 201 201 202 200 199 198 197 202 206 204 205 207 205 210 213 203 199 204 201 201 198 189 190 190 186 196 193 176 166 172 168 155 197 286 339 325 349 43 288 328 25 86 146 132 137 162 152 151 161 166 185 194 185 190 184 169 158 138 123 111 98 81 76
186 187 189 191 191 190 191 193 195 194 194 197 200 206 211 212 210 208 206 205 205 205 205 205 206 205 203 203 200 199 210 210 207 212 211 212 218 211 204 207 206 206 204 199 201 201 201 207 209 204 196 191 178 173 234 311 317 302 308 196 245 321 0 61 134 146 141 163 156 150 163 181 197 210 212 207 203 194 189 193 168 128 145 176 30
186 187 188 190 190 191 192 193 194 194 195 198 205 211 215 214 213 211 209 208 208 208 208 208 210 210 208 210 207 200 207 213 211 216 218 214 218 218 212 210 210 209 205 203 204 207 210 208 211 216 212 211 202 203 229 262 274 284 278 244 230 318 333 26 69 179 146 150 159 149 164 208 205 189 196 207 210 211 217 224 215 198 222 265 343
186 187 188 189 190 191 193 193 193 195 197 201 207 212 215 215 215 214 213 211 211 211 210 210 213 214 212 214 215 211 214 220 219 221 224 221 219 220 218 214 214 212 205 203 205 209 213 210 213 216 214 220 216 214 226 229 244 250 252 261 256 275 313 26 21 281 160 153 155 156 169 196 170 142 169 196 213 221 226 230 236 240 242 265 284
189 189 189 190 190 191 193 194 195 196 199 203 208 211 214 217 216 216 215 213 213 213 211 212 214 215 215 216 217 217 220 223 223 223 225 226 222 220 222 221 218 218 212 208 207 209 214 213 214 215 215 222 223 222 227 230 244 249 242 248 250 260 272 56 2 302 226 179 160 174 178 176 25 56 179 195 207 223 233 229 235 246 247 261 277
192 192 191 191 191 192 194 196 197 198 200 202 206 209 214 218 218 217 217 216 215 214 213 214 216 217 218 218 220 221 222 223 222 222 224 227 225 219 221 225 221 220 221 218 215 215 216 215 216 215 215 221 226 226 223 226 240 244 241 233 234 257 262 203 198 270 270 241 181 200 214 210 224 239 237 226 207 217 242 243 235 239 249 261 272
193 193 193 193 193 194 196 197 198 198 198 199 203 206 212 218 220 218 217 217 217 216 216 216 217 219 219 220 223 225 226 226 226 224 224 226 227 221 220 226 225 222 224 226 225 222 219 217 216 215 214 218 226 229 224 218 223 232 245 251 249 260 267 235 204 217 253 242 203 203 213 225 220 208 233 254 249 248 245 242 237 238 259 264 267
195 194 194 195 195 196 197 196 196 196 196 198 200 204 210 217 219 218 217 217 218 218 218 218 218 220 221 222 224 226 228 229 230 229 228 228 229 227 226 229 230 227 228 230 229 226 222 219 218 216 214 217 221 226 228 225 225 232 245 259 260 260 261 253 235 231 237 239 229 212 207 225 227 221 234 241 259 269 254 244 250 248 257 263 270
197 197 196 196 197 198 197 196 195 196 196 197 198 200 208 216 218 218 217 217 218 219 219 220 220 221 222 223 224 227 228 229 231 232 231 229 230 230 229 231 232 231 232 233 233 230 226 222 220 219 214 216 220 219 224 229 230 232 237 248 256 255 256 261 259 249 238 234 238 235 223 223 220 220 231 236 243 256 262 264 260 256 263 272 283
198 199 198 197 197 196 195 196 196 196 195 195 195 197 205 215 218 218 218 217 218 220 220 221 221 222 223 224 225 227 229 230 231 232 232 230 230 230 231 231 231 231 232 234 236 234 232 227 223 222 219 218 220 219 223 227 229 236 239 241 247 255 258 259 257 255 250 245 242 243 240 233 229 225 227 237 242 248 263 274 282 299 302 299 291
197 198 197 196 195 194 195 196 195 195 194 195 196 197 205 216 219 219 218 218 219 220 220 221 222 223 223 224 225 227 229 231 232 233 234 232 230 229 231 231 230 231 231 233 236 236 236 233 226 225 223 221 221 221 225 224 222 230 237 239 243 250 256 258 253 248 249 250 246 242 239 235 235 233 229 236 245 249 259 274 286 297 295 293 294
197 196 195 194 193 194 195 195 194 195 195 196 197 197 205 216 220 219 218 218 218 219 220 221 222 223 223 224 225 226 228 231 232 234 235 235 233 231 231 231 230 231 232 234 235 236 239 239 233 230 227 223 224 223 226 228 227 229 237 242 244 245 250 254 253 247 243 243 239 238 237 235 238 238 235 235 241 253 264 273 279 286 287 291 293
198 196 195 194 194 193 194 194 193 195 196 196 197 197 205 215 219 219 218 218 217 218 219 221 222 222 223 223 225 226 227 229 231 233 235 237 236 234 233 233 233 234 235 237 238 238 242 242 237 234 231 226 226 226 227 229 231 233 238 242 244 246 247 247 249 248 246 243 236 235 235 233 236 237 237 239 242 252 266 272 278 287 286 288 291
198 197 197 196 195 194 193 194 194 195 197 197 198 199 205 215 219 218 217 217 216 217 218 219 220 221 222 223 224 226 227 229 230 232 234 236 237 236 234 234 235 237 238 239 241 240 242 243 237 235 234 230 230 230 230 231 233 235 238 239 242 246 247 244 244 244 245 245 239 236 235 235 239 237 238 243 245 248 256 264 275 287 291 293 291
198 198 199 198 196 195 194 194 195 196 197 198 199 203 208 215 219 218 216 216 215 216 216 217 218 220 221 222 223 225 227 228 230 231 232 234 235 235 234 233 234 238 241 240 241 241 242 241 237 234 234 232 231 232 232 234 236 235 236 240 241 245 248 244 241 242 242 243 242 241 236 236 240 239 238 242 245 246 249 254 262 273 284 293 296
199 199 200 198 196 196 195 195 195 196 199 201 202 207 212 215 218 217 215 215 215 215 216 216 217 219 221 221 223 224 226 227 228 230 231 232 233 233 233 234 234 237 240 241 240 239 240 239 237 234 234 232 231 232 232 236 240 238 237 240 242 245 248 245 240 240 239 237 240 242 240 238 241 242 242 246 250 252 255 260 264 265 268 276 289
201 201 200 198 196 197 196 196 196 198 201 203 205 208 213 217 219 217 214 214 214 214 215 216 217 219 220 221 222 223 224 225 226 228 230 231 233 233 233 234 235 235 237 238 238 237 237 236 234 232 232 231 230 232 233 234 239 241 239 241 244 245 246 245 242 241 240 237 236 239 243 242 242 246 248 251 255 258 262 267 268 267 268 270 274
203 202 201 198 198 198 197 197 198 199 200 202 205 208 211 217 220 219 216 214 214 214 214 215 216 218 219 220 221 221 223 223 223 226 228 229 232 233 232 232 234 235 234 233 233 234 235 234 232 232 232 232 231 233 235 235 235 239 241 242 244 246 248 247 245 245 244 243 241 241 246 248 247 248 251 254 260 267 273 273 273 273 276 276 275
203 202 201 198 198 199 199 199 197 198 199 198 200 205 209 215 219 219 218 216 215 214 214 215 216 218 219 220 220 221 222 223 222 223 226 228 230 231 232 232 232 233 233 232 230 230 232 233 232 232 232 233 234 234 236 237 235 236 239 240 241 245 249 249 247 248 248 246 245 243 246 251 251 251 253 257 262 270 274 274 278 281 284 286 285
203 202 200 198 199 200 200 201 198 196 196 195 197 201 204 208 213 217 217 216 215 215 215 216 216 217 219 220 220 220 221 222 222 223 225 227 228 229 231 231 231 232 232 231 229 228 230 231 232 232 232 233 234 234 236 238 238 237 237 239 240 242 246 249 249 248 249 250 249 248 249 251 251 252 256 259 262 266 271 273 278 281 284 288 290
204 202 201 199 200 200 199 199 196 193 193 194 196 198 200 202 208 212 213 213 214 215 216 217 216 218 219 219 219 220 220 220 221 223 224 225 227 228 229 229 230 230 230 230 229 228 228 229 230 231 230 231 233 234 234 236 238 239 238 238 240 242 244 248 250 250 251 254 254 253 253 253 253 253 254 258 260 260 262 266 271 276 279 281 285
206 204 202 201 200 199 198 196 193 193 194 195 195 196 199 201 203 205 208 211 211 212 215 216 216 217 218 218 219 220 219 219 219 221 223 224 225 226 226 226 227 227 227 228 228 228 228 228 229 231 230 231 233 233 233 234 237 239 239 239 240 242 244 246 250 252 252 254 255 255 254 256 258 256 253 255 258 258 257 259 262 268 273 276 280
208 205 202 201 199 196 195 194 193 194 194 194 194 196 198 199 200 202 206 208 207 206 211 216 217 216 217 218 218 219 219 219 219 221 222 222 223 224 224 224 223 224 225 226 226 227 229 229 229 230 231 231 232 233 232 233 235 238 239 239 240 242 242 243 247 251 251 250 252 253 253 256 258 259 258 256 257 260 261 263 265 267 271 274 277
210 207 203 199 196 193 193 193 193 194 194 194 195 197 197 197 199 202 203 204 203 202 205 213 217 216 216 217 217 218 219 219 218 220 220 221 220 221 224 224 221 221 223 224 224 225 227 229 229 230 232 233 233 233 233 233 235 236 237 239 241 242 242 243 246 250 251 250 250 251 251 254 258 259 260 259 260 262 263 265 268 270 274 278 279
215 211 205 199 195 193 192 192 193 194 195 195 196 197 197 198 200 201 200 199 200 200 201 208 215 217 217 218 217 217 218 218 218 218 218 219 217 217 222 224 222 219 221 223 224 224 226 229 230 231 233 234 234 234 233 233 234 236 236 237 239 241 242 244 246 249 251 252 253 254 253 254 257 258 259 261 263 264 266 268 270 272 276 280 282
220 212 206 200 197 196 193 193 196 196 195 195 197 198 197 198 199 199 198 197 197 198 198 203 211 216 217 218 217 217 217 217 218 218 217 217 217 215 218 222 222 220 221 223 224 225 226 228 231 232 233 235 236 235 235 234 234 235 236 236 237 240 242 245 247 250 252 254 255 256 255 254 255 256 258 261 264 266 268 270 273 276 279 281 283
215 205 201 198 199 198 195 196 198 197 197 197 198 199 198 198 198 197 196 196 196 197 198 202 209 213 216 218 217 216 216 217 218 218 217 217 216 214 215 220 223 222 221 222 224 226 227 228 230 232 234 235 236 237 237 236 235 235 236 237 237 239 242 246 248 250 252 253 255 257 257 257 257 256 256 260 264 268 271 274 276 279 280 281 282
214 203 200 200 200 198 198 202 202 198 198 199 199 199 199 198 197 196 196 196 195 196 197 201 208 214 217 218 216 216 216 216 217 218 218 218 218 217 217 221 224 223 221 221 222 225 227 229 230 231 232 234 236 237 238 238 237 236 236 237 239 240 242 245 248 250 252 253 255 256 258 260 260 259 258 260 264 268 271 274 276 278 279 280 280
228 211 205 205 204 202 205 209 208 202 199 199 199 199 199 198 197 195 195 195 194 196 198 202 209 216 218 217 216 216 216 216 216 217 218 218 220 221 222 224 226 225 222 222 222 223 226 229 231 231 231 233 235 238 239 240 239 238 237 237 239 241 243 244 247 250 252 254 255 256 257 259 260 261 261 262 264 267 269 271 272 273 275 275 277
267 237 220 214 211 208 209 213 215 212 206 201 199 200 200 199 197 196 195 194 194 197 202 207 212 215 216 217 217 217 217 216 216 217 218 218 220 222 224 226 227 226 224 224 224 225 226 227 231 233 233 234 236 239 241 241 240 239 238 238 239 241 243 245 247 249 252 253 255 257 258 259 260 261 263 263 264 266 268 270 270 270 270 270 271
295 277 250 232 222 214 211 216 220 217 210 204 201 199 198 198 198 197 195 194 194 198 204 210 212 212 215 218 218 217 217 217 216 217 218 218 219 222 224 226 226 226 226 226 226 227 228 227 229 233 234 235 237 239 241 242 241 239 238 238 239 240 243 246 248 250 252 253 254 255 257 259 261 262 262 263 264 265 266 268 270 270 269 267 266
299 289 274 258 243 226 218 220 220 216 212 209 204 201 200 199 198 196 194 193 194 197 203 209 210 212 217 220 219 217 217 217 217 217 217 218 219 221 224 225 226 227 228 228 228 230 231 230 230 232 234 235 237 239 241 241 240 239 237 237 238 240 243 246 248 250 251 252 254 255 256 258 259 261 262 264 265 266 268 270 271 270 268 266 265
300 293 282 270 258 242 228 222 220 218 215 210 205 204 204 200 195 193 192 193 193 194 200 207 210 214 219 221 219 219 217 217 217 216 217 217 218 220 222 225 227 229 230 230 231 232 233 233 232 233 234 235 235 238 241 241 239 238 236 235 237 240 243 246 248 250 251 251 253 254 255 256 257 259 262 264 265 268 270 272 273 273 272 270 268
299 295 289 281 268 252 235 223 219 216 211 205 201 202 200 194 192 192 192 192 193 193 197 205 211 216 219 220 220 219 219 218 218 217 217 217 218 220 222 224 227 229 231 232 232 234 235 236 235 235 236 236 235 237 240 240 239 237 235 234 236 239 243 245 247 249 250 251 252 253 255 256 257 259 261 263 266 268 270 271 272 272 273 273 271
297 295 290 284 272 254 238 225 218 211 204 200 199 197 195 193 192 191 191 191 192 193 196 205 213 218 219 219 219 219 219 219 218 217 217 218 219 220 221 223 225 228 231 233 234 235 236 238 238 238 237 237 237 238 239 239 238 235 234 234 235 238 241 244 246 248 249 250 251 253 254 256 257 259 261 262 265 267 268 269 268 267 268 269 270
297 294 289 282 270 253 237 224 214 206 200 198 197 194 191 191 191 190 190 191 192 195 202 210 217 219 219 219 218 218 218 218 218 218 218 218 219 220 221 222 224 227 230 233 235 235 236 238 239 240 240 240 240 241 240 239 237 235 234 234 236 238 240 242 244 246 248 250 251 252 253 256 257 259 261 262 264 264 263 263 263 264 265 266 268
297 294 290 280 262 245 230 217 208 202 198 195 193 190 188 188 189 189 189 189 192 201 209 216 220 219 219 218 218 218 218 218 218 218 218 219 220 221 221 222 224 226 229 233 234 235 236 238 239 241 241 241 241 242 243 241 239 237 235 235 236 238 239 241 243 245 247 249 251 252 253 254 256 258 260 262 262 261 258 257 258 260 263 266 268
297 296 292 279 254 235 222 210 203 198 193 190 188 186 184 186 187 188 188 188 194 205 214 218 219 218 217 217 217 217 217 218 219 219 219 220 221 221 221 222 224 226 229 231 234 235 237 238 240 241 242 242 242 244 245 244 242 240 238 237 237 238 239 240 242 244 246 248 250 252 253 254 255 257 259 260 261 258 253 252 255 259 263 265 266
299 299 294 277 249 226 211 203 198 193 189 185 183 181 183 186 186 186 188 192 201 212 218 218 217 216 215 215 215 215 216 218 220 221 221 222 221 221 221 222 223 225 228 231 233 235 237 239 241 242 243 243 243 243 245 245 243 242 239 237 237 239 240 241 242 244 246 247 250 251 253 255 255 256 257 259 257 253 249 249 251 254 258 262 264
301 300 290 270 238 218 208 200 195 189 183 179 178 178 183 187 185 186 193 197 205 215 218 216 215 214 213 213 213 213 215 217 220 222 223 223 223 223 223 224 224 226 229 231 233 235 238 240 242 243 244 244 243 243 244 245 244 242 240 238 238 239 240 242 244 245 246 247 249 251 253 255 255 255 254 253 251 247 245 245 246 248 254 261 264
303 301 286 259 232 218 209 199 190 183 179 178 179 181 185 188 189 194 198 197 202 212 216 215 212 211 210 210 211 212 214 217 220 221 222 224 225 225 227 228 228 229 231 232 235 237 238 239 241 243 245 246 246 245 244 245 245 243 240 238 238 239 240 242 244 246 247 248 250 252 254 255 256 255 250 244 242 241 240 242 245 248 253 258 262
308 306 295 257 229 217 205 193 187 183 181 180 180 183 189 194 197 199 197 195 202 212 215 212 208 207 208 208 209 211 213 215 218 219 221 223 225 227 229 231 230 230 232 234 235 236 237 238 239 241 243 245 246 246 244 243 244 243 240 238 237 237 239 240 242 245 247 248 250 252 253 255 254 251 243 235 234 235 238 242 245 249 253 256 260
326 320 326 191 216 212 199 190 186 183 181 180 183 188 194 198 201 200 195 196 205 212 213 210 207 206 207 208 210 212 213 215 218 220 222 224 226 228 230 232 232 232 232 233 234 232 231 232 233 234 235 236 238 241 241 241 241 240 239 237 235 234 235 237 239 241 242 245 247 247 247 250 249 244 235 232 232 233 237 242 245 249 253 255 259
6 11 51 97 157 185 182 182 182 182 180 178 185 195 199 199 200 200 196 196 205 210 211 209 207 206 208 210 211 212 214 217 219 222 224 225 226 228 231 232 233 232 232 233 234 231 229 229 227 227 230 231 232 236 240 241 240 237 236 236 235 233 233 234 235 236 236 236 236 236 239 242 243 239 234 233 234 233 236 242 245 248 252 255 258
32 48 74 109 144 138 137 150 160 171 179 180 187 199 203 200 200 201 199 200 206 211 210 208 208 207 208 209 210 212 214 216 218 220 223 224 224 226 229 230 231 231 232 232 230 227 230 232 229 225 227 230 231 234 238 242 240 236 235 236 236 234 232 232 233 234 234 234 234 236 240 241 240 238 236 236 237 237 237 241 245 247 250 254 257
43 57 75 96 127 132 136 147 147 146 160 176 185 197 204 205 205 204 203 206 210 211 208 206 205 204 204 205 207 208 210 212 215 216 218 222 223 224 227 229 229 230 232 232 231 227 228 230 227 224 226 229 231 235 240 244 244 241 238 237 237 237 234 231 231 231 232 234 236 236 238 240 237 235 235 237 239 239 238 240 245 248 251 256 263
46 54 66 80 97 103 122 151 157 154 157 165 169 177 195 205 206 204 204 207 210 209 207 204 202 201 201 203 205 206 205 207 213 214 214 218 223 224 225 229 230 230 231 232 233 231 226 223 223 225 227 228 230 236 239 240 243 245 245 242 240 238 236 234 233 232 232 234 236 234 233 235 235 234 236 240 240 239 241 244 248 251 257 263 269
52 53 57 66 75 81 94 117 141 164 178 181 181 184 194 200 202 203 204 206 207 206 205 204 202 202 204 204 205 208 206 204 209 214 215 216 219 219 221 224 228 232 233 231 231 232 232 229 228 228 229 228 230 235 236 238 244 250 254 252 246 240 237 236 235 234 231 231 233 232 231 233 236 236 238 241 243 244 246 250 253 259 265 266 261
57 57 56 58 59 62 76 93 100 125 163 179 187 194 199 202 203 205 206 207 206 204 203 204 202 203 207 208 207 210 210 207 206 209 217 221 220 219 221 220 221 227 231 230 227 227 228 229 227 227 229 232 235 238 240 247 256 259 257 255 251 243 235 229 227 226 225 225 229 232 232 234 236 237 239 244 248 249 250 253 257 261 258 246 235
57 55 53 56 60 60 64 73 83 101 124 141 162 182 195 202 206 208 207 208 209 206 206 207 205 203 207 210 209 209 211 212 208 206 217 227 226 224 227 228 226 228 231 233 232 228 225 226 228 228 231 235 239 242 246 253 259 255 243 238 239 235 227 221 217 217 221 224 226 229 231 235 238 240 243 244 245 247 251 254 251 243 231 221 224